When you browse on this site, cookies collect data to enhance your experience and personalize the content and advertising you see.
Visit our Privacy Policy to learn more. By continuing to use the site, you agree to this use of cookies and data.
  • In Hungary
  • List of Countries
  • For 7 days
  • Water Temperature
  • Satellite Maps
  • Weather Map
  • News
  • Weather Widgets
  • user-avatar
    Login

    Hourly Weather Glowy

    Today, 19 December, Wednesday

    Time Temperature Precipitation Wind Pressure Humidity
    00:00 -1°C° 0 mm 3 mps 760 mmHg 94%
    01:00 -1°C° 0 mm 3 mps 760 mmHg 93%
    02:00 -1°C° 0 mm 3 mps 760 mmHg 92%
    03:00 -1°C° 0 mm 3 mps 759 mmHg 91%
    04:00 -3°C° 0 mm 4 mps 759 mmHg 89%
    05:00 -3°C° 0 mm 4 mps 759 mmHg 89%
    06:00 -3°C° 0 mm 4 mps 759 mmHg 88%
    07:00 -3°C° 0 mm 4 mps 759 mmHg 88%
    08:00 -4°C° 0 mm 5 mps 759 mmHg 86%
    09:00 -4°C° 0 mm 5 mps 758 mmHg 84%
    10:00 -4°C° 0 mm 5 mps 758 mmHg 83%
    11:00 -2°C° 0 mm 5 mps 758 mmHg 81%
    12:00 -2°C° 0 mm 5 mps 757 mmHg 80%
    13:00 -2°C° 0 mm 5 mps 757 mmHg 79%
    14:00 -2°C° 0 mm 5 mps 757 mmHg 80%
    15:00 -4°C° 0 mm 5 mps 756 mmHg 81%
    16:00 -4°C° 0 mm 5 mps 756 mmHg 82%
    17:00 -4°C° 0 mm 5 mps 756 mmHg 82%
    18:00 -4°C° 0 mm 5 mps 755 mmHg 82%
    19:00 -3°C° 0 mm 4 mps 755 mmHg 82%
    20:00 -3°C° 0 mm 4 mps 755 mmHg 82%
    21:00 -3°C° 0 mm 4 mps 755 mmHg 82%
    22:00 -3°C° 0 mm 4 mps 755 mmHg 82%
    23:00 -3°C° 0 mm 4 mps 755 mmHg 82%

    Tomorrow, 20 December, Thursday

    Time Temperature Precipitation Wind Pressure Humidity
    00:00 -3°C° 0 mm 4 mps 754 mmHg 82%
    01:00 -3°C° 0 mm 4 mps 754 mmHg 83%
    02:00 -2°C° 0.1 mm 3 mps 754 mmHg 84%
    03:00 -2°C° 0.1 mm 3 mps 754 mmHg 85%
    04:00 -2°C° 0.1 mm 3 mps 754 mmHg 87%
    05:00 -2°C° 0.2 mm 3 mps 754 mmHg 87%
    06:00 -2°C° 0.2 mm 3 mps 754 mmHg 87%
    07:00 -2°C° 0.2 mm 3 mps 754 mmHg 88%
    08:00 -1°C° 0.2 mm 3 mps 754 mmHg 87%
    09:00 -1°C° 0.2 mm 3 mps 754 mmHg 86%
    10:00 -1°C° 0.2 mm 3 mps 754 mmHg 85%
    11:00 -1°C° 0.1 mm 3 mps 754 mmHg 85%
    12:00 -1°C° 0.1 mm 3 mps 753 mmHg 85%
    13:00 -1°C° 0.1 mm 3 mps 753 mmHg 85%
    14:00 -1°C° 0.2 mm 3 mps 753 mmHg 87%
    15:00 -1°C° 0.2 mm 3 mps 753 mmHg 90%
    16:00 -1°C° 0.2 mm 3 mps 753 mmHg 92%
    17:00 -1°C° 0.2 mm 3 mps 753 mmHg 93%
    18:00 -1°C° 0.2 mm 3 mps 753 mmHg 94%
    19:00 -1°C° 0.2 mm 3 mps 753 mmHg 95%
    20:00 -1°C° 0.1 mm 3 mps 753 mmHg 95%
    21:00 0°C° 0.1 mm 3 mps 753 mmHg 94%
    22:00 0°C° 0.1 mm 3 mps 753 mmHg 94%
    23:00 0°C° 0 mm 3 mps 753 mmHg 94%

    Day after tomorrow, 21 December, Friday

    Time Temperature Precipitation Wind Pressure Humidity
    00:00 0°C° 0 mm 3 mps 752 mmHg 94%
    01:00 0°C° 0 mm 3 mps 752 mmHg 93%
    02:00 0°C° 0 mm 3 mps 752 mmHg 94%
    03:00 -1°C° 0 mm 4 mps 752 mmHg 94%
    04:00 -1°C° 0 mm 4 mps 751 mmHg 94%
    05:00 0°C° 0 mm 3 mps 751 mmHg 94%
    06:00 0°C° 0 mm 3 mps 751 mmHg 94%
    07:00 0°C° 0 mm 3 mps 751 mmHg 94%
    08:00 0°C° 0 mm 3 mps 750 mmHg 94%
    09:00 -1°C° 0 mm 4 mps 750 mmHg 95%
    10:00 0°C° 0 mm 4 mps 750 mmHg 95%
    11:00 0°C° 0 mm 4 mps 749 mmHg 95%
    12:00 0°C° 0 mm 4 mps 748 mmHg 95%
    13:00 +1°C° 0 mm 3 mps 748 mmHg 95%
    14:00 0°C° 0.1 mm 4 mps 747 mmHg 94%
    15:00 0°C° 0.1 mm 4 mps 747 mmHg 94%
    16:00 0°C° 0.1 mm 4 mps 746 mmHg 93%
    17:00 0°C° 0.2 mm 4 mps 745 mmHg 93%
    18:00 0°C° 0.2 mm 4 mps 744 mmHg 93%
    19:00 0°C° 0.2 mm 5 mps 743 mmHg 93%
    20:00 0°C° 1.2 mm 5 mps 742 mmHg 94%
    21:00 0°C° 1.2 mm 5 mps 741 mmHg 94%
    22:00 +1°C° 1.2 mm 5 mps 740 mmHg 95%
    23:00 +1°C° 0.6 mm 6 mps 740 mmHg 92%

    22 December, Saturday

    Time Temperature Precipitation Wind Pressure Humidity
    00:00 +2°C° 0.6 mm 7 mps 740 mmHg 89%
    01:00 +3°C° 0.6 mm 7 mps 739 mmHg 86%
    02:00 +3°C° 0.1 mm 7 mps 740 mmHg 86%
    03:00 +2°C° 0.1 mm 8 mps 740 mmHg 85%
    04:00 +2°C° 0.1 mm 8 mps 740 mmHg 85%
    05:00 +3°C° 0 mm 7 mps 741 mmHg 85%
    06:00 +2°C° 0 mm 7 mps 741 mmHg 86%
    07:00 +2°C° 0 mm 6 mps 741 mmHg 86%
    08:00 +2°C° 0 mm 6 mps 741 mmHg 86%
    09:00 +3°C° 0 mm 6 mps 741 mmHg 87%
    10:00 +3°C° 0 mm 6 mps 741 mmHg 87%
    11:00 +3°C° 0.2 mm 6 mps 741 mmHg 88%
    12:00 +3°C° 0.2 mm 6 mps 741 mmHg 89%
    13:00 +4°C° 0.2 mm 6 mps 741 mmHg 89%
    14:00 +4°C° 0 mm 6 mps 741 mmHg 90%
    15:00 +3°C° 0 mm 6 mps 741 mmHg 90%
    16:00 +3°C° 0 mm 5 mps 742 mmHg 90%
    17:00 +3°C° 0.1 mm 6 mps 742 mmHg 90%
    18:00 +3°C° 0.1 mm 6 mps 742 mmHg 89%
    19:00 +4°C° 0.1 mm 6 mps 743 mmHg 89%
    20:00 +4°C° 0.1 mm 7 mps 743 mmHg 87%
    21:00 +4°C° 0.1 mm 8 mps 743 mmHg 85%
    22:00 +4°C° 0.1 mm 8 mps 744 mmHg 84%
    23:00 +4°C° 0.1 mm 8 mps 744 mmHg 84%

    23 December, Sunday

    Time Temperature Precipitation Wind Pressure Humidity
    00:00 +2°C° 0.1 mm 8 mps 744 mmHg 83%
    01:00 +2°C° 0.1 mm 8 mps 745 mmHg 83%
    02:00 +3°C° 0.2 mm 7 mps 745 mmHg 84%
    03:00 +3°C° 0.2 mm 6 mps 746 mmHg 86%
    04:00 +2°C° 0.2 mm 5 mps 746 mmHg 87%
    05:00 +3°C° 0.2 mm 4 mps 747 mmHg 89%
    06:00 +3°C° 0.2 mm 3 mps 747 mmHg 90%
    07:00 +3°C° 0.2 mm 2 mps 747 mmHg 92%
    08:00 +3°C° 0.3 mm 2 mps 748 mmHg 91%
    09:00 +4°C° 0.3 mm 2 mps 748 mmHg 91%
    10:00 +4°C° 0.3 mm 2 mps 749 mmHg 90%
    11:00 +3°C° 0.3 mm 3 mps 749 mmHg 89%
    12:00 +3°C° 0.3 mm 3 mps 749 mmHg 87%
    13:00 +3°C° 0.3 mm 4 mps 749 mmHg 86%
    14:00 +3°C° 0.2 mm 4 mps 749 mmHg 86%
    15:00 +3°C° 0.2 mm 4 mps 750 mmHg 87%
    16:00 +3°C° 0.2 mm 4 mps 750 mmHg 88%
    17:00 +3°C° 0.1 mm 3 mps 750 mmHg 89%
    18:00 +2°C° 0.1 mm 3 mps 750 mmHg 89%
    19:00 +2°C° 0.1 mm 3 mps 750 mmHg 90%
    20:00 +3°C° 0.3 mm 2 mps 750 mmHg 91%
    21:00 +2°C° 0.3 mm 2 mps 751 mmHg 92%
    22:00 +2°C° 0.3 mm 2 mps 751 mmHg 94%
    23:00 +1°C° 0.3 mm 2 mps 751 mmHg 93%

    24 December, Monday

    Time Temperature Precipitation Wind Pressure Humidity
    00:00 +1°C° 0.3 mm 2 mps 752 mmHg 92%
    01:00 0°C° 0.3 mm 3 mps 752 mmHg 91%
    02:00 -1°C° 0 mm 3 mps 752 mmHg 92%
    03:00 -1°C° 0 mm 2 mps 753 mmHg 92%
    04:00 -2°C° 0 mm 2 mps 754 mmHg 93%
    05:00 -2°C° 0 mm 2 mps 754 mmHg 93%
    06:00 -2°C° 0 mm 2 mps 755 mmHg 93%
    07:00 -2°C° 0 mm 2 mps 755 mmHg 93%
    08:00 -1°C° 0 mm 2 mps 755 mmHg 91%
    09:00 +1°C° 0 mm 2 mps 756 mmHg 90%
    10:00 +2°C° 0 mm 2 mps 756 mmHg 88%
    11:00 +1°C° 0.1 mm 3 mps 756 mmHg 89%
    12:00 +2°C° 0.1 mm 3 mps 756 mmHg 89%
    13:00 +1°C° 0.1 mm 4 mps 756 mmHg 90%
    14:00 +1°C° 0.1 mm 4 mps 756 mmHg 90%
    15:00 +1°C° 0.1 mm 4 mps 756 mmHg 91%
    16:00 +1°C° 0.1 mm 4 mps 756 mmHg 92%
    17:00 +2°C° 0.1 mm 3 mps 756 mmHg 93%
    18:00 +1°C° 0.1 mm 3 mps 756 mmHg 93%
    19:00 +1°C° 0.1 mm 3 mps 756 mmHg 94%
    20:00 +1°C° 0.1 mm 3 mps 756 mmHg 93%
    21:00 0°C° 0.1 mm 4 mps 756 mmHg 92%
    22:00 0°C° 0.1 mm 4 mps 756 mmHg 92%
    23:00 0°C° 0 mm 4 mps 756 mmHg 91%
    Show more